Regional Weather Roundup
Issued by NWS

Home | Current Version | Previous Version | Text Only | Print | Product List | Glossary On
Versions: 1 2 3 4 5 6 7 8 9 10 11 12 13 14 15 16 17 18 19 20 21 22 23 24 25 26 27 28 29 30 31 32 33 34 35 36 37 38 39 40 41 42 43 44 45 46 47 48 49 50
655
ASUS45 KBOU 281407
RWRCO

WEATHER ROUNDUP FOR COLORADO
NATIONAL WEATHER SERVICE DENVER/BOULDER CO
800 AM MDT FRI APR 28 2017

NOTE: "FAIR" INDICATES FEW OR NO CLOUDS BELOW 12000 FEET WITH NO
SIGNIFICANT WEATHER AND/OR OBSTRUCTIONS TO VISIBILITY.

COZ001>005-013-030-031-281500-
...NORTHWEST COLORADO...

CITY           SKY/WX    TMP DP  RH WIND       PRES   REMARKS
CRAIG          CLOUDY    32  23  69 SW3       29.77R
HAYDEN         PTSUNNY   28  21  74 SW3       29.76S
MEEKER         LGT SNOW  29  27  92 NE3       29.77R VSB 3/4
MOUNT WERNER   NOT AVBL
STEAMBOAT SPGS CLOUDY    27  24  87 CALM      29.75S
WALDEN           N/A     25  19  80 S7        29.72R WCI  17
$$

COZ006>008-011-281500-
...WEST CENTRAL VALLEYS...

CITY           SKY/WX    TMP DP  RH WIND       PRES   REMARKS
GRAND JUNCTION FAIR      37  22  54 NW5       29.77R
MONTROSE       FAIR      34  17  50 SE6       29.80R WCI  29
EAGLE          PTSUNNY   30  25  80 NE5       29.78S WCI  25
RIFLE          PTSUNNY   35  28  75 NE6       29.77R WCI  30
DELTA          FAIR      38  20  48 NE3       29.77S
NUCLA          FAIR      36  12  38 CALM      29.80F
$$

COZ017>023-064>068-281500-
...SOUTHWEST COLORADO...

CITY           SKY/WX    TMP DP  RH WIND       PRES   REMARKS
DURANGO        FAIR      35  24  64 SW13      29.74S WCI  26
CORTEZ         FAIR      37  20  50 MISG      29.78S
PAGOSA SPRINGS FAIR      32  19  58 CALM      29.76S
TELLURIDE      FAIR      24  14  64 SE5       29.76S WCI  18
WOLF CREEK PAS CLOUDY    12  12 100 S16G23    29.78R WCI  -4
$$

COZ009-010-012-014-032>034-037-058>063-281500-
...CENTRAL COLORADO...

CITY           SKY/WX    TMP DP  RH WIND       PRES   REMARKS
ASPEN          FAIR      24  23  96 S6        29.74R WCI  17
BUENA VISTA    FAIR      30  15  53 N12       29.71R WCI  20
COPPER MTN     CLOUDY    14   9  79 MISG      29.69S
BERTHOUD PASS  CLOUDY     7  -4  61 NW17G25   29.67R WCI -12
COTTONWOOD PAS FAIR      28  12  50 W10G21    29.70R WCI  19
GUNNISON       FAIR      27  22  81 CALM      29.75S
KREMMLING      FAIR      36  21  55 CALM      29.76R
LEADVILLE      PTSUNNY   18  10  71 N5        29.70R WCI  11
MONARCH PASS   CLOUDY    12  10  92 SW22G33   29.79S WCI  -7
SALIDA         FAIR      31  19  61 N3        29.78F
SUNLIGHT       FAIR     N/A N/A N/A CALM      29.76S
WILKERSON PASS FAIR      18   5  57 W7G17     29.71R WCI   8
$$

COZ069>075-281500-
...SAN LUIS VALLEY/SANGRE DE CRISTO MOUNTAINS...

CITY           SKY/WX    TMP DP  RH WIND       PRES   REMARKS
ALAMOSA        FAIR      30  24  78 N3        29.72S
LA VETA PASS   CLOUDY    25  18  74 S13G22    29.84S WCI  13
SAGUACHE       FAIR      32  12  43 NW12      29.73S WCI  23
$$

COZ035-036-038>040-281500-
...NORTHERN COLORADO FRONT RANGE...

CITY           SKY/WX    TMP DP  RH WIND       PRES   REMARKS
DENVER INTL AP FAIR      43  20  39 SW9       29.65R
DMNS CITY PARK   N/A     44  16  33 SW7       29.66S
AURORA         MOSUNNY   41  17  38 SW5       29.67R
FRONT RANGE AP MOSUNNY   45  21  39 SW10      29.66
ERIE MUNI ARPT FAIR      41  32  71 N6        29.66R
BOULDER MUN AP FAIR      43  18  36 CALM      29.65S
CENTENNIAL     FAIR      41  14  33 SW12      29.66S
BROOMFIELD     MOSUNNY   43  12  28 NW5       29.66R
FORT COLLINS   FOG       35  34  96 CALM      29.67R VSB<1/4
LONGMONT       FAIR      44  34  69 NE6       29.68R HAZE
$$

COZ041-046-047-076>085-087-088-281500-
...PIKES PEAK/PALMER DIVIDE AND SOUTHERN FOOTHILLS...

CITY           SKY/WX    TMP DP  RH WIND       PRES   REMARKS
COLO. SPRINGS  FAIR      42  20  41 W7        29.68R
A. F. ACADEMY  FAIR      40   8  26 E3        29.67R
SCHRIEVER AFB  FAIR      41  12  30 W9        29.68R
ELLICOTT       FAIR     N/A N/A N/A N6        29.66R
FALCON         FAIR      39  10  31 W17G24    29.68F
FORT CARSON    FAIR      42  19  38 CALM      29.67R
LIMON          FAIR      38  31  76 W7        29.67S
MONUMENT HILL  FAIR      34  19  55 W5        29.69S WCI  30
TRINIDAD       FAIR      42  27  55 W5        29.68F
$$

COZ042>045-048>051-090-091-281500-
...NORTHEAST COLORADO...

CITY           SKY/WX    TMP DP  RH WIND       PRES   REMARKS
GREELEY ARPT   FOG       36  35  96 CALM      29.68R VSB 1/4
AKRON          FAIR      40  35  83 W8        29.67R
BURLINGTON     NOT AVBL
WRAY           NOT AVBL
STERLING       PTSUNNY   37  37 100 CALM      29.66R
HOLYOKE        LGT RAIN  37  36  93 E8        29.69R
FORT MORGAN    FAIR      37  36  95 CALM      29.68R
$$

COZ086-089-092>099-281500-
...SOUTHEAST COLORADO...

CITY           SKY/WX    TMP DP  RH WIND       PRES   REMARKS
PUEBLO         FAIR      44  26  49 VRB3      29.67R
LA JUNTA       FAIR      43  38  82 SW10      29.67S
LAMAR          FAIR      43  39  86 MISG      29.66S
SPRINGFIELD      N/A     48  42  80 SW6       29.67F
$$




USA.gov is the U.S. government's official web portal to all federal, state and local government web resources and services.